Terminal Aerodrome Forecast
Issued by NWS Omaha/Valley, NE

Home | Current Version | Previous Version | Graphics & Text | Print | Product List | Glossary On
Versions: 1 2 3 4 5 6 7 8 9 10 11 12 13 14 15 16 17 18 19 20 21 22 23 24 25 26 27 28 29 30 31 32 33 34 35 36 37 38 39 40 41 42 43 44 45 46 47 48 49 50
000
FTUS43 KOAX 051127
TAFOFK
TAF
KOFK 051127Z 0512/0612 05003KT 4SM BR OVC006
      TEMPO 0512/0514 2SM BR OVC004
     FM051500 11007KT 4SM BR OVC012
     FM051800 14010KT P6SM OVC040
      TEMPO 0521/0524 4SM -SHRA BR OVC025
     FM060600 15012KT 5SM -SHRA BR OVC015=

USA.gov is the U.S. government's official web portal to all federal, state and local government web resources and services.